Location: Moscow
(55.7500°N, 37.5830°E)
Time: 11:11:33
(UTC+03:00)

Explorer 7 - Pass Details

Date: 06 December 2021
Orbit: 483 x 674 km, 50.3° (Epoch: 19 January)

Event Time Altitude Azimuth Distance (km) Brightness Sun altitude
Rises 08:24:51 0° 259° (W) 2,759 10.0 -2.8°
Reaches altitude 10° 08:27:16 10° 251° (WSW) 1,828 9.2 -2.5°
Maximum altitude 08:31:07 38° 183° (S) 819 8.1 -2.1°
Drops below altitude 10° 08:34:46 10° 115° (ESE) 1,732 11.1 -1.7°
Sets 08:37:00 0° 107° (ESE) 2,593 11.7 -1.4°
